Change the Weather History Date:

Saturday, March 30, 2013

  Actual Average Record
Temperature  
Mean Temperature 33 °F -  
Max Temperature 50 °F 44 °F 72 °F (1986)
Min Temperature 16 °F 26 °F 3 °F (1969)
Degree Days  
Heating Degree Days 32    
Moisture  
Dew Point 19 °F    
Average Humidity 57    
Maximum Humidity 87    
Minimum Humidity 26    
Precipitation  
Precipitation 0.00 in - - ()
Sea Level Pressure  
Sea Level Pressure 30.02 in    
Wind  
Wind Speed 3 mph (SSW)    
Max Wind Speed 15 mph    
Max Gust Speed 24 mph    
Visibility 10 miles    
Events Rain    
Averages and records for this station are not official NWS values.
T = Trace of Precipitation, MM = Missing Value Source: NWS Daily Summary

Daily Weather History Graph

Daily Weather History Graph

Search for Another Location

Airport or City:

Trip Planner

Search our weather history database for the weather conditions in past years. The results will help you decide how hot, cold, wet, or windy it might be!

Date:

Astronomy

Mar. 30, 2013 Rise Set
Actual Time 7:26 AM EDT 8:06 PM EDT
Civil Twilight 6:56 AM EDT 8:36 PM EDT
Nautical Twilight 6:22 AM EDT 9:10 PM EDT
Astronomical Twilight 5:46 AM EDT 9:46 PM EDT
Moon No Moon Rise 9:12 AM EDT (3/30)
Length of Visible Light 13h 39m
Length of Day
12h 40m
Waning Gibbous, 86% of the Moon is Illuminated
Mar 30
Waning Gibbous
Apr 3
Last Quarter
Apr 10
New
Apr 18
First Quarter
Apr 25
Full

Hourly Weather History & Observations

Time (EDT) Temp. Windchill Dew Point Humidity Pressure Visibility Wind Dir Wind Speed Gust Speed Precip Events Conditions
12:15 AM 23.9 °F - 17.4 °F 76% 30.17 in 10.0 mi Calm Calm - N/A   Clear
12:35 AM 24.3 °F - 18.3 °F 78% 30.17 in 10.0 mi Calm Calm - N/A   Clear
12:55 AM 23.9 °F - 18.3 °F 79% 30.17 in 10.0 mi Calm Calm - N/A   Clear
1:15 AM 23.9 °F - 18.0 °F 78% 30.17 in 10.0 mi Calm Calm - N/A   Clear
1:35 AM 23.7 °F - 18.0 °F 79% 30.17 in 10.0 mi Calm Calm - N/A   Clear
2:15 AM 22.6 °F - 17.4 °F 80% 30.17 in 10.0 mi Calm Calm - N/A   Clear
2:35 AM 22.1 °F - 18.0 °F 84% 30.17 in 10.0 mi Calm Calm - N/A   Clear
2:55 AM 21.2 °F - 17.1 °F 84% 30.17 in 10.0 mi Calm Calm - N/A   Clear
3:15 AM 21.2 °F - 16.7 °F 83% 30.16 in 10.0 mi Calm Calm - N/A   Clear
3:35 AM 20.7 °F - 16.9 °F 85% 30.16 in 10.0 mi Calm Calm - N/A   Clear
3:55 AM 19.4 °F - 14.7 °F 82% 30.16 in 10.0 mi Calm Calm - N/A   Clear
4:15 AM 20.1 °F - 16.3 °F 85% 30.16 in 10.0 mi Calm Calm - N/A   Clear
4:35 AM 20.1 °F - 16.3 °F 85% 30.16 in 10.0 mi Calm Calm - N/A   Clear
4:55 AM 19.4 °F - 15.4 °F 85% 30.15 in 10.0 mi Calm Calm - N/A   Clear
5:15 AM 18.9 °F - 14.7 °F 84% 30.14 in 10.0 mi Calm Calm - N/A   Clear
5:35 AM 18.9 °F - 14.5 °F 83% 30.14 in 10.0 mi Calm Calm - N/A   Clear
5:55 AM 18.9 °F - 14.7 °F 84% 30.14 in 10.0 mi Calm Calm - N/A   Clear
6:15 AM 17.6 °F - 13.8 °F 85% 30.14 in 10.0 mi Calm Calm - N/A   Clear
6:35 AM 18.9 °F - 15.4 °F 87% 30.14 in 10.0 mi Calm Calm - N/A   Clear
6:54 AM 18.9 °F - 15.1 °F 85% 30.14 in 10.0 mi Calm Calm - N/A   Clear
7:15 AM 18.5 °F - 14.5 °F 85% 30.13 in 10.0 mi Calm Calm - N/A   Clear
7:35 AM 16.5 °F - 12.4 °F 84% 30.13 in 10.0 mi Calm Calm - N/A   Clear
7:54 AM 18.9 °F - 15.1 °F 85% 30.13 in 10.0 mi Calm Calm - N/A   Clear
8:15 AM 21.2 °F - 17.1 °F 84% 30.12 in 10.0 mi Calm Calm - N/A   Clear
8:35 AM 22.5 °F - 17.6 °F 82% 30.13 in 10.0 mi Calm Calm - N/A   Clear
8:55 AM 25.9 °F - 19.4 °F 76% 30.13 in 10.0 mi Calm Calm - N/A   Clear
9:15 AM 29.8 °F - 21.4 °F 71% 30.12 in 10.0 mi Calm Calm - N/A   Clear
9:35 AM 31.5 °F - 22.1 °F 68% 30.11 in 10.0 mi Calm Calm - N/A   Clear
9:55 AM 32.9 °F - 25.0 °F 73% 30.10 in 10.0 mi Calm Calm - N/A   Clear
10:15 AM 38.8 °F 35.4 °F 20.8 °F 48% 30.10 in 10.0 mi SSW 4.6 mph - N/A   Clear
10:35 AM 41.2 °F 35.5 °F 20.5 °F 44% 30.08 in 10.0 mi South 9.2 mph - N/A   Clear
10:55 AM 41.4 °F 36.8 °F 21.2 °F 45% 30.07 in 10.0 mi South 6.9 mph - N/A   Clear
11:15 AM 42.4 °F 37.0 °F 20.3 °F 41% 30.06 in 10.0 mi SSE 9.2 mph - N/A   Clear
11:35 AM 42.4 °F 37.0 °F 19.2 °F 39% 30.06 in 10.0 mi South 9.2 mph - N/A   Clear
11:55 AM 43.9 °F 38.3 °F 19.9 °F 38% 30.05 in 10.0 mi South 10.4 mph - N/A   Clear
12:15 PM 43.9 °F 38.3 °F 18.9 °F 37% 30.05 in 10.0 mi South 10.4 mph - N/A   Clear
12:34 PM 44.6 °F 39.2 °F 19.6 °F 37% 30.04 in 10.0 mi SSW 10.4 mph - N/A   Clear
12:55 PM 45.1 °F 39.5 °F 18.1 °F 34% 30.04 in 10.0 mi SSW 11.5 mph 17.3 mph N/A   Clear
1:15 PM 45.1 °F 39.1 °F 18.5 °F 35% 30.03 in 10.0 mi South 12.7 mph - N/A   Clear
1:34 PM 45.3 °F 39.0 °F 17.1 °F 32% 30.02 in 10.0 mi South 13.8 mph 21.9 mph N/A   Clear
1:55 PM 46.9 °F - 19.6 °F 34% 30.00 in 10.0 mi South 11.5 mph 17.3 mph N/A   Clear
2:15 PM 47.1 °F - 17.1 °F 30% 29.99 in 10.0 mi South 15.0 mph 24.2 mph N/A   Clear
2:34 PM 46.4 °F 40.4 °F 14.9 °F 28% 29.98 in 10.0 mi South 13.8 mph 19.6 mph N/A   Mostly Cloudy
2:55 PM 48.2 °F - 17.1 °F 29% 29.97 in 10.0 mi South 12.7 mph 18.4 mph N/A   Overcast
3:15 PM 49.1 °F - 16.5 °F 27% 29.96 in 10.0 mi SSW 11.5 mph 20.7 mph N/A   Scattered Clouds
3:34 PM 49.1 °F - 15.6 °F 26% 29.96 in 10.0 mi SSW 13.8 mph 19.6 mph N/A   Mostly Cloudy
3:55 PM 49.1 °F - 15.1 °F 26% 29.96 in 10.0 mi South 12.7 mph 17.3 mph N/A   Overcast
4:15 PM 49.1 °F - 15.1 °F 26% 29.95 in 10.0 mi South 9.2 mph - N/A   Overcast
4:35 PM 50.2 °F - 16.0 °F 26% 29.94 in 10.0 mi SSW 10.4 mph - N/A   Overcast
4:55 PM 50.2 °F - 16.0 °F 26% 29.93 in 10.0 mi SSW 11.5 mph 18.4 mph N/A   Scattered Clouds
5:15 PM 49.1 °F - 16.3 °F 27% 29.93 in 10.0 mi SSW 10.4 mph - N/A   Mostly Cloudy
5:35 PM 48.9 °F - 20.1 °F 32% 29.92 in 10.0 mi SSW 5.8 mph - N/A   Mostly Cloudy
5:55 PM 48.0 °F - 16.9 °F 29% 29.90 in 10.0 mi South 8.1 mph - N/A   Overcast
6:15 PM 46.8 °F - 18.0 °F 32% 29.90 in 10.0 mi South 5.8 mph - N/A   Mostly Cloudy
6:35 PM 46.4 °F 42.9 °F 17.1 °F 31% 29.89 in 10.0 mi South 6.9 mph - N/A   Mostly Cloudy
6:55 PM 46.4 °F 43.5 °F 18.3 °F 33% 29.88 in 10.0 mi South 5.8 mph - N/A   Overcast
7:15 PM 45.5 °F 42.5 °F 18.3 °F 34% 29.89 in 10.0 mi South 5.8 mph - N/A   Overcast
7:35 PM 45.1 °F 42.0 °F 18.7 °F 35% 29.89 in 10.0 mi South 5.8 mph - N/A   Overcast
7:55 PM 44.2 °F 41.8 °F 19.8 °F 38% 29.88 in 10.0 mi SSW 4.6 mph - N/A   Overcast
8:14 PM 44.6 °F 43.1 °F 18.3 °F 35% 29.87 in 10.0 mi South 3.5 mph - N/A   Overcast
8:35 PM 43.7 °F - 20.7 °F 40% 29.87 in 10.0 mi Calm Calm - N/A   Overcast
8:55 PM 43.7 °F 42.1 °F 20.7 °F 40% 29.86 in 10.0 mi South 3.5 mph - N/A   Overcast
9:14 PM 43.9 °F - 20.7 °F 40% 29.86 in 10.0 mi Calm Calm - N/A   Overcast
9:35 PM 42.4 °F - 21.9 °F 44% 29.86 in 10.0 mi Calm Calm - N/A   Overcast
9:55 PM 42.4 °F 40.7 °F 23.2 °F 47% 29.86 in 10.0 mi WSW 3.5 mph - N/A   Overcast
10:14 PM 42.4 °F 38.8 °F 25.0 °F 50% 29.86 in 10.0 mi WSW 5.8 mph - N/A   Light Drizzle
10:35 PM 41.5 °F 37.1 °F 29.1 °F 61% 29.85 in 10.0 mi SW 6.9 mph - N/A   Drizzle
10:55 PM 41.2 °F 36.6 °F 33.4 °F 74% 29.84 in 10.0 mi SSW 6.9 mph - N/A   Drizzle
11:14 PM 41.2 °F 38.2 °F 33.3 °F 73% 29.83 in 10.0 mi South 4.6 mph - N/A Rain Light Rain
11:35 PM 41.2 °F 37.3 °F 35.2 °F 79% 29.82 in 7.0 mi South 5.8 mph - N/A Rain Light Rain
11:55 PM 41.2 °F 35.5 °F 36.0 °F 82% 29.81 in 10.0 mi SSW 9.2 mph - N/A Rain Rain